This demonstration page uses our WeatherBlox Daily Observations layout. Learn more.

Left ArrowRight Arrow

38.80484, -77.04692

Hourly Observations for August 3, 2022

Temp ( °F °C ) Dew Point ( °F °C ) Humidity (%) Winds ( mph kmh ) Pressure ( in mb ) Visibility ( mi km ) Precip ( " mm )
12:52 am 00:52 Mostly Clear 80 26.7 63 17.2 56 56 N 8 13 29.95 1014 10 16 0.00 0.00
1:52 am 01:52 Mostly Clear 77 25 64 17.8 64 64 NNW 8 13 29.96 1015 10 16 0.00 0.00
2:52 am 02:52 Mostly Clear 77 25 64 17.8 64 64 NNW 13 20 29.96 1015 10 16 0.00 0.00
3:52 am 03:52 Mostly Clear 76 24.4 65 18.3 69 69 NNW 8 13 29.97 1015 10 16 0.00 0.00
4:52 am 04:52 Clear 76 24.4 64 17.8 67 67 NW 6 9 29.98 1015 10 16 0.00 0.00
5:52 am 05:52 Partly Cloudy 75 23.9 64 17.8 69 69 NNW 6 9 29.99 1016 10 16 0.00 0.00
6:52 am 06:52 Partly Cloudy 75 23.9 65 18.3 71 71 NNW 8 13 30.02 1017 10 16 0.00 0.00
7:52 am 07:52 Partly Cloudy 79 26.1 65 18.3 62 62 N 5 7 30.03 1017 10 16 0.00 0.00
8:52 am 08:52 Partly Cloudy 82 27.8 64 17.8 55 55 Calm 30.04 1017 10 16 0.00 0.00
9:52 am 09:52 Mostly Sunny 84 28.9 61 16.1 46 46 Calm 30.04 1017 10 16 0.00 0.00
10:52 am 10:52 Mostly Sunny 86 30 59 15 40 40 Calm 30.05 1018 10 16 0.00 0.00
11:52 am 11:52 Mostly Sunny 88 31.1 61 16.1 40 40 ENE 5 7 30.04 1017 10 16 0.00 0.00
12:52 pm 12:52 Mostly Sunny 90 32.2 62 16.7 39 39 ENE 3 6 30.04 1017 10 16 0.00 0.00
1:52 pm 13:52 Mostly Sunny 91 32.8 63 17.2 39 39 E 3 6 30.02 1017 10 16 0.00 0.00
2:52 pm 14:52 Partly Cloudy 89 31.7 65 18.3 45 45 SSE 7 11 30.01 1016 10 16 0.00 0.00
3:52 pm 15:52 Partly Cloudy 91 32.8 66 18.9 44 44 S 9 15 29.99 1016 10 16 0.00 0.00
4:52 pm 16:52 Mostly Sunny 90 32.2 66 18.9 45 45 S 10 17 29.97 1015 10 16 0.00 0.00
5:52 pm 17:52 Mostly Sunny 90 32.2 65 18.3 44 44 S 8 13 29.96 1015 10 16 0.00 0.00
6:52 pm 18:52 Mostly Sunny 88 31.1 68 20 52 52 S 10 17 29.96 1015 10 16 0.00 0.00
7:52 pm 19:52 Sunny 86 30 65 18.3 49 49 SSW 10 17 29.97 1015 10 16 0.00 0.00
8:52 pm 20:52 Clear 84 28.9 65 18.3 53 53 S 9 15 30.00 1016 10 16 0.00 0.00
9:52 pm 21:52 Clear 82 27.8 68 20 63 63 S 7 11 30.04 1017 10 16 0.00 0.00
10:52 pm 22:52 Clear 81 27.2 68 20 65 65 S 6 9 30.05 1018 10 16 0.00 0.00
11:52 pm 23:52 Clear 81 27.2 69 20.6 67 67 S 8 13 30.04 1017 10 16 0.00 0.00

Powered by AerisWeather